AirNav   Everest Fuels
 
 1051 users online  

WI23 Cornucopia Field Airport
Cornucopia, Wisconsin, USA

GOING TO CORNUCOPIA?


FAA INFORMATION EFFECTIVE 25 FEBRUARY 2021

Location

FAA Identifier: WI23
Lat/Long: 46-51-59.7550N 091-05-00.6710W
46-51.995917N 091-05.011183W
46.8665986,-91.0835197
(estimated)
Elevation: 760 ft. / 232 m (estimated)
Variation: 01E (1985)
From city: 1 mile W of CORNUCOPIA, WI
Time zone: UTC -6 (UTC -5 during Daylight Saving Time)
Zip code: 54827

Airport Operations

Airport use: Private use. Permission required prior to landing
Activation date: 07/1968
Control tower: no
ARTCC: MINNEAPOLIS CENTER
FSS: GREEN BAY FLIGHT SERVICE STATION
Attendance: UNATNDD
Wind indicator: yes
Segmented circle: no

Airport Communications

WX AWOS-3PT at 4R5 (14 nm E): 119.375 (715-747-5519)

Airport Services

Parking: tiedowns
Airframe service: NONE
Powerplant service: NONE

Runway Information

Runway 5/23

Dimensions: 2010 x 80 ft. / 613 x 24 m
Surface: turf, in fair condition
RUNWAY 5  RUNWAY 23
Traffic pattern: leftleft
Obstructions: 5 ft. brush, 45 ft. right of centerline4 ft. trees, 54 ft. right of centerline

Airport Ownership and Management from official FAA records

Ownership: Publicly-owned
Owner: TOWN OF BELL
CORNUCOPIA MEN CLUB; BOX 113
CORNUCOPIA, WI 54827
Phone 715-742-3924
Manager: TIM KASENO
BOX 296
CORNUCOPIA, WI 54827
Phone 612-877-1095

Airport Operational Statistics

Aircraft operations: 80/year *
100% transient general aviation
* for 12-month period ending 21 July 2020

Additional Remarks

RY 05/23 HAS A 110' STWY ON SW END & 80' STWY ON NE END.
TERRAIN DROPS OFF APRXLY 8-10' IN LAST 200' OF RWY/STOPWAY SOUTHWEST END RWY 05/23.
FOR CD CTC MINNEAPOLIS ARTCC AT 651-463-5588.
FOR FLD CONDS, CALL 612-877-1095.

Instrument Procedures

There are no published instrument procedures at WI23.

Some nearby airports with instrument procedures:

4R5 - Major Gilbert Field Airport (14 nm E)
KASX - John F Kennedy Memorial Airport (20 nm S)
KTWM - Richard B Helgeson Airport (29 nm W)
3CU - Cable Union Airport (41 nm S)
KSUW - Richard I Bong Airport (43 nm W)
 
Loc | Ops | Rwys | IFR | FBO | Links
Com | Nav | Svcs | Stats | Notes
Area around WI23 (Cornucopia Field Airport)
 
Road maps at: MapQuest Bing Google
 
Aerial photo
WARNING: Photo may not be current or correct
Aerial photo of WI23 (Cornucopia Field Airport)
Photo taken 21-Jun-2019

Do you have a better or more recent aerial photo of Cornucopia Field Airport that you would like to share? If so, please send us your photo.

 
Sectional chart

 
Airport distance calculator
Flying to Cornucopia Field Airport? Find the distance to fly.

From to WI23

Sunrise and sunset
Times for 25-Feb-2021
 Local
(UTC-6)
 Zulu
(UTC)
Morning civil twilight06:2212:22
Sunrise06:5212:52
Sunset17:4323:43
Evening civil twilight18:1300:13

Current date and time
Zulu (UTC)  26-Feb-2021 00:23:31
Local (UTC-6)  25-Feb-2021 18:23:31
 
METAR
K4R5 
14nm E 
252355Z AUTO 25005KT 10SM CLR 01/M08 A3010 RMK AO2 T00141078
KASX 
20nm S 
252353Z AUTO 23009KT 10SM CLR 01/M08 A3011 RMK AO2 SLP210 T00111078 10028 20006 55004
KBFW 
24nm NW 
252355Z AUTO 22005KT 10SM CLR 00/M09 A3004 RMK AO2
TAF
KIWD 
45nm SE 
251902Z 2519/2618 26010G17KT P6SM FEW030 FM260000 23009KT P6SM FEW080 FM260900 19012KT P6SM FEW200 WS014/22040KT
KDLH 
46nm W 
251959Z 2520/2618 25015G22KT P6SM SCT023 SCT035 TEMPO 2520/2522 BKN035 FM260300 21012KT P6SM FEW150 FM260600 20013G17KT P6SM FEW200 WS020/23045KT FM261700 19017G28KT P6SM BKN060
NOTAMs
Click for the latest NOTAMs
NOTAMs are issued by the DoD/FAA and will open in a separate window not controlled by AirNav.

 

 
 

Would you like to see your business listed on this page?

 If your business provides an interesting product or service to pilots, flight crews, aircraft, or users of the Cornucopia Field Airport, you should consider listing it here.  To start the listing process, click on the button below
 
Add a business
 

Other Pages about Cornucopia Field Airport

Update a link
 
Copyright © AirNav, LLC. All rights reserved. Privacy Policy  Contact